| time (UTC) | temp F | wind direction | speed MPH | gust MPH | rain 1hr in | rain 24hr in | rain mn in | humidity % | barometer mb |
| 20260508004127 | 64 | 315 | 0.0 | 0.0 | 0.00 | 0.00 | 0.00 | 91 | 1033.4 |
| 20260508003127 | 64 | 337 | 0.0 | 0.0 | 0.00 | 0.00 | 0.00 | 92 | 1033.5 |
| 20260508002128 | 64 | 325 | 0.0 | 0.0 | 0.00 | 0.00 | 0.00 | 90 | 1033.4 |
| 20260508000227 | 65 | 316 | 0.0 | 0.0 | 0.00 | 0.00 | 0.00 | 91 | 1033.5 |
| 20260507234228 | 65 | 320 | 0.0 | 0.0 | 0.00 | 0.00 | 0.00 | 91 | 1033.5 |
| 20260507233325 | 65 | 335 | 0.0 | 0.0 | 0.00 | 0.00 | 0.00 | 90 | 1033.4 |
| 20260507232326 | 65 | 319 | 0.0 | 0.0 | 0.00 | 0.00 | 0.00 | 89 | 1033.4 |
| 20260507230428 | 66 | 331 | 0.0 | 0.0 | 0.00 | 0.00 | 0.00 | 90 | 1033.3 |
| 20260507225427 | 66 | 332 | 0.0 | 0.0 | 0.00 | 0.00 | 0.00 | 92 | 1033.4 |
| 20260507224428 | 65 | 316 | 0.0 | 0.0 | 0.00 | 0.00 | 0.00 | 89 | 1033.4 |
| 20260507223526 | 66 | 318 | 0.0 | 0.0 | 0.00 | 0.00 | 0.00 | 87 | 1033.6 |
| 20260507221528 | 66 | 316 | 0.0 | 0.0 | 0.00 | 0.00 | 0.00 | 89 | 1033.7 |
| 20260507214727 | 67 | 317 | 0.0 | 0.0 | 0.00 | 0.00 | 0.00 | 87 | 1033.9 |
| 20260507213726 | 68 | 324 | 0.0 | 0.0 | 0.00 | 0.00 | 0.00 | 88 | 1034.0 |
| 20260507212726 | 68 | 317 | 0.0 | 0.0 | 0.00 | 0.00 | 0.00 | 89 | 1034.0 |
| 20260507211727 | 68 | 323 | 0.0 | 0.0 | 0.00 | 0.00 | 0.00 | 87 | 1034.0 |
| 20260507205725 | 68 | 322 | 0.0 | 0.0 | 0.00 | 0.00 | 0.00 | 88 | 1034.2 |
| 20260507203729 | 68 | 321 | 0.0 | 0.0 | 0.00 | 0.00 | 0.00 | 87 | 1034.2 |
| 20260507202826 | 68 | 325 | 0.0 | 0.0 | 0.00 | 0.00 | 0.00 | 87 | 1034.3 |
| 20260507201827 | 68 | 327 | 0.0 | 0.0 | 0.00 | 0.00 | 0.00 | 86 | 1034.5 |
| 20260507200826 | 67 | 323 | 0.0 | 0.0 | 0.00 | 0.00 | 0.00 | 88 | 1034.5 |
| 20260507195827 | 67 | 317 | 0.0 | 0.0 | 0.00 | 0.00 | 0.00 | 86 | 1034.5 |
| 20260507193829 | 67 | 322 | 0.0 | 0.0 | 0.00 | 0.00 | 0.00 | 85 | 1034.6 |
| 20260507192827 | 67 | 323 | 0.0 | 0.0 | 0.00 | 0.00 | 0.00 | 86 | 1034.5 |
| 20260507191826 | 68 | 322 | 0.0 | 0.0 | 0.00 | 0.00 | 0.00 | 86 | 1034.6 |
| 20260507190925 | 67 | 318 | 0.0 | 0.0 | 0.00 | 0.00 | 0.00 | 84 | 1034.8 |
| 20260507185025 | 66 | 324 | 0.0 | 0.0 | 0.00 | 0.00 | 0.00 | 84 | 1035.2 |
| 20260507183027 | 66 | 321 | 0.0 | 0.0 | 0.00 | 0.00 | 0.00 | 83 | 1035.2 |
| 20260507181027 | 64 | 318 | 0.0 | 0.0 | 0.00 | 0.00 | 0.00 | 83 | 1035.3 |
| 20260507180026 | 64 | 316 | 0.0 | 0.0 | 0.00 | 0.00 | 0.00 | 83 | 1035.3 |
| 20260507175027 | 64 | 322 | 0.0 | 0.0 | 0.00 | 0.00 | 0.00 | 84 | 1035.4 |
| 20260507174028 | 64 | 322 | 0.0 | 0.0 | 0.00 | 0.00 | 0.00 | 84 | 1035.5 |
| 20260507172027 | 63 | 335 | 0.0 | 0.0 | 0.00 | 0.00 | 0.00 | 86 | 1035.4 |
| 20260507171027 | 63 | 315 | 0.0 | 0.0 | 0.00 | 0.00 | 0.00 | 85 | 1035.5 |
| 20260507170027 | 64 | 316 | 0.0 | 0.0 | 0.00 | 0.00 | 0.00 | 86 | 1035.5 |
| 20260507164126 | 63 | 317 | 0.0 | 0.0 | 0.00 | 0.00 | 0.00 | 88 | 1035.5 |
| 20260507163127 | 63 | 317 | 0.0 | 0.0 | 0.00 | 0.00 | 0.00 | 90 | 1035.7 |
| 20260507162126 | 63 | 325 | 0.0 | 0.0 | 0.00 | 0.00 | 0.00 | 88 | 1035.8 |
| 20260507161127 | 63 | 315 | 0.0 | 0.0 | 0.00 | 0.00 | 0.00 | 88 | 1035.7 |
| 20260507154226 | 62 | 335 | 0.0 | 0.0 | 0.00 | 0.00 | 0.00 | 91 | 1035.8 |
| 20260507153228 | 62 | 315 | 0.0 | 0.0 | 0.00 | 0.00 | 0.00 | 90 | 1035.8 |
| 20260507152326 | 62 | 315 | 0.0 | 0.0 | 0.00 | 0.00 | 0.00 | 90 | 1035.7 |
| 20260507151327 | 62 | 360 | 0.0 | 0.0 | 0.00 | 0.00 | 0.00 | 90 | 1035.8 |
| 20260507150326 | 61 | 221 | 0.0 | 0.0 | 0.00 | 0.00 | 0.00 | 91 | 1035.8 |
| 20260507145327 | 61 | 336 | 0.0 | 0.0 | 0.00 | 0.00 | 0.00 | 90 | 1035.7 |
| 20260507144327 | 60 | 337 | 0.0 | 0.0 | 0.00 | 0.00 | 0.00 | 89 | 1035.5 |
| 20260507143325 | 60 | 337 | 0.0 | 0.0 | 0.00 | 0.00 | 0.00 | 89 | 1035.5 |
| 20260507141426 | 60 | 337 | 0.0 | 0.0 | 0.00 | 0.00 | 0.00 | 90 | 1035.3 |
| 20260507140425 | 60 | 337 | 0.0 | 0.0 | 0.00 | 0.00 | 0.00 | 91 | 1035.3 |
| 20260507135427 | 59 | 337 | 0.0 | 0.0 | 0.00 | 0.00 | 0.00 | 90 | 1035.2 |
| 20260507133426 | 59 | 337 | 0.0 | 0.0 | 0.00 | 0.00 | 0.00 | 92 | 1035.1 |
| 20260507132525 | 59 | 337 | 0.0 | 0.0 | 0.00 | 0.00 | 0.00 | 92 | 1035.1 |
| 20260507131526 | 59 | 180 | 0.0 | 0.0 | 0.00 | 0.00 | 0.00 | 92 | 1035.1 |
| 20260507125526 | 58 | 180 | 0.0 | 0.0 | 0.00 | 0.00 | 0.00 | 92 | 1034.9 |
| 20260507124526 | 58 | 180 | 0.0 | 0.0 | 0.00 | 0.00 | 0.00 | 93 | 1034.9 |
| 20260507123527 | 58 | 180 | 0.0 | 0.0 | 0.00 | 0.00 | 0.00 | 93 | 1034.8 |
| 20260507120527 | 58 | 337 | 0.0 | 0.0 | 0.00 | 0.00 | 0.00 | 92 | 1034.7 |
| 20260507115528 | 58 | 337 | 0.0 | 0.0 | 0.00 | 0.00 | 0.00 | 92 | 1034.6 |
| 20260507114625 | 58 | 337 | 0.0 | 0.0 | 0.00 | 0.00 | 0.00 | 92 | 1034.6 |
| 20260507113627 | 58 | 337 | 0.0 | 0.0 | 0.00 | 0.00 | 0.00 | 92 | 1034.8 |
| 20260507112626 | 58 | 337 | 0.0 | 0.0 | 0.00 | 0.00 | 0.00 | 92 | 1034.8 |
| 20260507111627 | 58 | 337 | 0.0 | 0.0 | 0.00 | 0.00 | 0.00 | 90 | 1034.8 |
| 20260507110627 | 58 | 337 | 0.0 | 0.0 | 0.00 | 0.00 | 0.00 | 91 | 1034.9 |
| 20260507104824 | 58 | 315 | 0.0 | 0.0 | 0.00 | 0.00 | 0.00 | 90 | 1035.1 |
| 20260507103827 | 58 | 337 | 0.0 | 0.0 | 0.00 | 0.00 | 0.00 | 90 | 1035.2 |
| 20260507102925 | 58 | 337 | 0.0 | 0.0 | 0.00 | 0.00 | 0.00 | 89 | 1035.2 |
| 20260507101926 | 59 | 337 | 0.0 | 0.0 | 0.00 | 0.00 | 0.00 | 88 | 1035.2 |
| 20260507100928 | 59 | 337 | 0.0 | 0.0 | 0.00 | 0.00 | 0.00 | 89 | 1035.2 |
| 20260507094927 | 60 | 337 | 0.0 | 0.0 | 0.00 | 0.00 | 0.00 | 89 | 1035.3 |
| 20260507093926 | 60 | 337 | 0.0 | 0.0 | 0.00 | 0.00 | 0.00 | 89 | 1035.3 |
| 20260507092927 | 60 | 328 | 0.0 | 0.0 | 0.00 | 0.00 | 0.00 | 90 | 1035.4 |
| 20260507091927 | 60 | 315 | 0.0 | 0.0 | 0.00 | 0.00 | 0.00 | 90 | 1035.4 |
| 20260507091026 | 60 | 316 | 0.0 | 0.0 | 0.00 | 0.00 | 0.00 | 89 | 1035.5 |
| 20260507090025 | 60 | 337 | 0.0 | 0.0 | 0.00 | 0.00 | 0.00 | 90 | 1035.6 |
| 20260507085026 | 60 | 315 | 0.0 | 0.0 | 0.00 | 0.00 | 0.00 | 89 | 1035.7 |
| 20260507084026 | 60 | 315 | 0.0 | 0.0 | 0.00 | 0.00 | 0.00 | 89 | 1035.8 |
| 20260507083027 | 60 | 315 | 0.0 | 0.0 | 0.00 | 0.00 | 0.00 | 89 | 1035.9 |
| 20260507082125 | 60 | 315 | 0.0 | 0.0 | 0.00 | 0.00 | 0.00 | 90 | 1036.0 |
| 20260507080126 | 60 | 315 | 0.0 | 0.0 | 0.00 | 0.00 | 0.00 | 90 | 1036.2 |
| 20260507080025 | 60 | 315 | 0.0 | 0.0 | 0.00 | 0.00 | 0.00 | 89 | 1036.2 |
| 20260507074026 | 59 | 315 | 0.0 | 0.0 | 0.00 | 0.00 | 0.00 | 90 | 1036.2 |
| 20260507073028 | 59 | 337 | 0.0 | 0.0 | 0.00 | 0.00 | 0.00 | 90 | 1036.2 |
| 20260507072026 | 59 | 360 | 0.0 | 0.0 | 0.00 | 0.00 | 0.00 | 90 | 1036.2 |
| 20260507071025 | 58 | 360 | 0.0 | 0.0 | 0.00 | 0.00 | 0.00 | 90 | 1036.4 |
| 20260507061124 | 59 | 360 | 0.0 | 0.0 | 0.00 | 0.00 | 0.00 | 88 | 1036.4 |
| 20260507060127 | 59 | 360 | 0.0 | 0.0 | 0.00 | 0.00 | 0.00 | 88 | 1036.5 |
| 20260507055224 | 59 | 360 | 0.0 | 0.0 | 0.00 | 0.00 | 0.00 | 88 | 1036.5 |
| 20260507054226 | 59 | 337 | 0.0 | 0.0 | 0.00 | 0.00 | 0.00 | 88 | 1036.5 |
| 20260507053226 | 59 | 328 | 0.0 | 0.0 | 0.00 | 0.00 | 0.00 | 88 | 1036.5 |
| 20260507052224 | 59 | 337 | 0.0 | 0.0 | 0.00 | 0.00 | 0.00 | 88 | 1036.5 |
| 20260507051225 | 59 | 337 | 0.0 | 0.0 | 0.00 | 0.00 | 0.00 | 88 | 1036.5 |
| 20260507045324 | 60 | 360 | 0.0 | 0.0 | 0.00 | 0.00 | 0.00 | 89 | 1036.4 |
| 20260507045224 | 60 | 357 | 0.0 | 0.0 | 0.00 | 0.00 | 0.00 | 89 | 1036.4 |
| 20260507044226 | 60 | 360 | 0.0 | 0.0 | 0.00 | 0.00 | 0.00 | 88 | 1036.4 |
| 20260507043225 | 60 | 338 | 0.0 | 0.0 | 0.00 | 0.00 | 0.00 | 88 | 1036.2 |
| 20260507041324 | 60 | 360 | 0.0 | 0.0 | 0.00 | 0.00 | 0.00 | 89 | 1036.2 |
| 20260507040325 | 61 | 360 | 0.0 | 0.0 | 0.00 | 0.00 | 0.00 | 89 | 1036.2 |
| 20260507035325 | 60 | 355 | 0.0 | 0.0 | 0.00 | 0.00 | 0.00 | 89 | 1036.2 |
| 20260507034326 | 61 | 360 | 0.0 | 0.0 | 0.00 | 0.00 | 0.00 | 89 | 1036.1 |
| 20260507033423 | 61 | 346 | 0.0 | 0.0 | 0.00 | 0.00 | 0.00 | 89 | 1036.0 |
| 20260507032425 | 61 | 353 | 0.0 | 0.0 | 0.00 | 0.00 | 0.00 | 88 | 1035.8 |
| 20260507030425 | 61 | 349 | 0.0 | 0.0 | 0.00 | 0.00 | 0.00 | 87 | 1035.7 |
| 20260507025424 | 61 | 342 | 0.0 | 0.0 | 0.00 | 0.00 | 0.00 | 86 | 1035.7 |
| 20260507024426 | 62 | 337 | 0.0 | 0.0 | 0.00 | 0.00 | 0.00 | 86 | 1035.6 |
| 20260507023425 | 62 | 316 | 0.0 | 0.0 | 0.00 | 0.00 | 0.00 | 85 | 1035.5 |
| 20260507022424 | 63 | 351 | 0.0 | 0.0 | 0.00 | 0.00 | 0.00 | 86 | 1035.5 |
| 20260507021427 | 63 | 339 | 0.0 | 0.0 | 0.00 | 0.00 | 0.00 | 86 | 1035.3 |
| 20260507020524 | 64 | 353 | 0.0 | 0.0 | 0.00 | 0.00 | 0.00 | 86 | 1035.2 |
| 20260507015525 | 64 | 341 | 0.0 | 0.0 | 0.00 | 0.00 | 0.00 | 85 | 1035.2 |
| 20260507013525 | 67 | 327 | 0.0 | 0.0 | 0.00 | 0.00 | 0.00 | 83 | 1035.1 |
| 20260507011526 | 68 | 328 | 0.0 | 0.0 | 0.00 | 0.00 | 0.00 | 85 | 1035.1 |
| 20260507005624 | 68 | 325 | 0.0 | 0.0 | 0.00 | 0.00 | 0.00 | 86 | 1035.0 |
| 20260507004626 | 68 | 319 | 0.0 | 0.0 | 0.00 | 0.00 | 0.00 | 86 | 1034.9 |